This demonstration page uses our WeatherBlox Daily Observations layout. Learn more.

Left ArrowRight Arrow

Hourly Observations for May 31, 2015

Temp ( °F °C ) Dew Point ( °F °C ) Humidity (%) Winds ( mph kmh ) Pressure ( in mb ) Visibility ( mi km ) Precip ( " mm )
12:58 am 00:58 Clear 50 9.9 47 8.4 90 90 NNE 3 6 30.20 1023 10 16 0.00 0.00
1:58 am 01:58 Clear 49 9.7 48 8.7 94 94 NE 3 6 30.20 1023 10 16 0.00 0.00
2:58 am 02:58 Clear 50 10 48 9.1 94 94 NNE 3 6 30.20 1023 10 16 0.00 0.00
3:58 am 03:58 Clear 48 9 46 8 94 94 NW 3 6 30.21 1023 10 16 0.00 0.00
4:58 am 04:58 Clear 49 9.2 47 8.2 94 94 NE 3 6 30.20 1023 10 16 0.00 0.00
5:26 am 05:26 Mostly Cloudy 48 9 46 8 94 94 NNE 5 7 30.21 1023 10 16 0.00 0.00
5:53 am 05:53 Cloudy 52 11 48 9 88 88 NNE 5 7 30.21 1023 10 16 0.00 0.00
5:58 am 05:58 Cloudy 51 10.6 49 9.2 91 91 NE 3 6 30.21 1023 10 16 0.00 0.00
5:59 am 05:59 Cloudy 52 11 48 9 88 88 NE 3 6 30.21 1023 10 16 0.00 0.00
6:53 am 06:53 Cloudy 54 12 50 10 88 88 ENE 5 7 30.21 1023 10 16 0.00 0.00
6:58 am 06:58 Cloudy 54 12.1 51 10.4 89 89 ENE 5 7 30.21 1023 10 16 0.00 0.00
7:58 am 07:58 Cloudy 54 12.4 51 10.3 87 87 ENE 2 4 30.21 1023 10 16 0.00 0.00
8:10 am 08:10 Mostly Cloudy 55 13 52 11 88 88 Calm 30.21 1023 10 16 0.00 0.00
8:58 am 08:58 Mostly Sunny 59 15.1 52 11.1 77 77 E 7 11 30.21 1023 10 16 0.00 0.00
9:58 am 09:58 Mostly Cloudy 60 15.6 51 10.8 73 73 E 7 11 30.20 1023 10 16 0.00 0.00
10:29 am 10:29 Cloudy 61 16 50 10 68 68 VRB 5 7 30.21 1023 10 16 0.00 0.00
10:37 am 10:37 Cloudy 61 16 50 10 68 68 ESE 5 7 30.21 1023 10 16 0.00 0.00
10:40 am 10:40 Cloudy 61 16 50 10 68 68 NE 5 7 30.21 1023 10 16 0.00 0.00
10:42 am 10:42 Cloudy 61 16 50 10 68 68 NE 3 6 30.21 1023 10 16 0.00 0.00
10:44 am 10:44 Cloudy 63 17 50 10 64 64 VRB 6 9 30.21 1023 10 16 0.00 0.00
10:58 am 10:58 Cloudy 63 17 50 10 64 64 E 9 15 30.21 1023 10 16 0.00 0.00
11:58 am 11:58 Partly Cloudy 65 18.5 48 9 54 54 SE 6 9 30.20 1023 10 16 0.00 0.00
12:58 pm 12:58 Sunny 66 18.9 47 8.6 51 51 NE 5 7 30.19 1022 10 16 0.00 0.00
1:58 pm 13:58 Mostly Sunny 67 19.6 43 6.3 42 42 E 10 17 30.17 1022 10 16 0.00 0.00
2:58 pm 14:58 Partly Cloudy 68 20.1 43 5.9 40 40 ENE 8 13 30.16 1021 10 16 0.00 0.00
3:58 pm 15:58 Mostly Sunny 66 19 45 7 46 46 E 9 15 30.14 1021 10 16 0.00 0.00
4:58 pm 16:58 Mostly Cloudy 69 20.8 46 7.6 43 43 ESE 8 13 30.12 1020 10 16 0.00 0.00
5:58 pm 17:58 Partly Cloudy 67 19.4 45 7.4 46 46 E 7 11 30.12 1020 10 16 0.00 0.00
6:58 pm 18:58 Partly Cloudy 65 18.6 45 7.2 48 48 E 9 15 30.12 1020 10 16 0.00 0.00
7:58 pm 19:58 Cloudy 64 18 46 7.6 51 51 E 7 11 30.11 1020 10 16 0.00 0.00
8:58 pm 20:58 Mostly Cloudy 62 16.6 46 7.6 56 56 ENE 5 7 30.13 1020 10 16 0.00 0.00
9:58 pm 21:58 Cloudy 60 15.6 46 7.7 60 60 ENE 6 9 30.15 1021 10 16 0.00 0.00
10:58 pm 22:58 Partly Cloudy 58 14.6 44 6.4 58 58 ENE 5 7 30.16 1021 10 16 0.00 0.00
11:58 pm 23:58 Cloudy 58 14.6 44 6.6 59 59 E 6 9 30.14 1021 10 16 0.00 0.00

Powered by AerisWeather